IZ2OSD Weather Reports


time (UTC)temp
F
wind
direction
speed
knots
gust
knots
rain 1hr
in
rain 24hr
in
rain mn
in
humidity
%
barometer
mb
20260507103840 69 292 0.0 0.9 0.00 0.23 0.02 60 1012.2
20260507102858 68 292 0.0 1.7 0.00 0.23 0.02 60 1012.2
20260507101833 70 270 0.9 2.6 0.00 0.23 0.02 56 1012.3
20260507100829 68 270 0.0 0.9 0.00 0.23 0.02 60 1012.2
20260507095825 64 112 0.0 2.6 0.00 0.23 0.02 62 1012.3
20260507094820 67 292 0.9 1.7 0.00 0.23 0.02 61 1012.5
20260507093817 65 270 0.0 0.9 0.00 0.23 0.02 64 1012.2
20260507092814 65 292 0.0 0.9 0.00 0.23 0.02 64 1012.4
20260507091811 64 0.0 0.9 0.00 0.23 0.02 66 1012.1
20260507090807 65 270 0.0 1.7 0.00 0.23 0.02 64 1012.4
20260507085805 65 292 0.9 1.7 0.00 0.23 0.02 66 1012.3
20260507084817 63 292 0.9 0.9 0.00 0.28 0.02 65 1012.0
20260507083813 63 315 0.9 2.6 0.00 0.31 0.02 66 1012.1
20260507082810 64 0.0 0.0 0.00 0.34 0.02 63 1012.1
20260507081746 65 292 0.0 0.9 0.00 0.38 0.02 64 1012.3
20260507080803 64 0.0 0.0 0.00 0.47 0.02 66 1012.0
20260507075740 61 292 1.7 1.7 0.00 0.50 0.02 71 1012.1
20260507074757 61 292 1.7 1.7 0.00 0.53 0.02 72 1011.8
20260507073754 59 0.0 0.9 0.00 0.54 0.02 76 1011.7
20260507072729 59 292 0.9 1.7 0.00 0.54 0.02 74 1011.9
20260507071725 60 292 0.0 0.9 0.00 0.54 0.02 77 1011.8
20260507070721 57 0.0 0.0 0.00 0.54 0.02 79 1011.9
20260507065717 56 292 0.0 1.7 0.00 0.54 0.02 82 1011.6
20260507064715 56 292 2.6 2.6 0.00 0.54 0.02 80 1011.5
20260507063710 56 315 1.7 2.6 0.00 0.54 0.02 82 1011.5
20260507062707 55 292 1.7 3.5 0.00 0.54 0.02 84 1011.3
20260507061719 54 315 0.9 1.7 0.00 0.54 0.02 86 1011.3
20260507060738 53 292 1.7 2.6 0.00 0.54 0.02 87 1011.2
20260507055652 54 292 0.0 1.7 0.00 0.54 0.02 87 1011.2
20260507054651 53 315 0.9 1.7 0.00 0.54 0.02 88 1011.1
20260507053645 53 0.0 0.0 0.00 0.54 0.02 88 1010.9
20260507052641 52 315 0.0 0.9 0.00 0.54 0.02 88 1010.8
20260507051637 52 0.0 0.0 0.00 0.54 0.02 88 1010.8
20260507050632 52 0.0 0.0 0.00 0.54 0.02 87 1010.6
20260507045629 52 0.0 0.0 0.00 0.54 0.02 87 1010.7
20260507044627 52 315 0.0 0.9 0.00 0.54 0.02 86 1010.3
20260507043623 52 0.0 0.9 0.00 0.54 0.02 86 1010.2
20260507042700 52 315 1.7 2.6 0.00 0.54 0.02 86 1010.3
20260507041616 52 292 0.9 1.7 0.01 0.55 0.02 86 1010.2
20260507040612 52 315 2.6 3.5 0.01 0.56 0.02 87 1010.1
20260507035629 51 292 4.3 7.0 0.01 0.56 0.02 89 1010.2
20260507034605 52 315 0.9 2.6 0.01 0.56 0.02 89 1010.2
20260507033617 51 315 2.6 3.5 0.01 0.56 0.02 88 1010.1
20260507032613 51 292 2.6 5.2 0.01 0.56 0.02 89 1010.1
20260507031548 51 292 4.3 7.0 0.00 0.56 0.01 90 1010.2
20260507030547 51 292 3.5 5.2 0.00 0.56 0.01 90 1010.2
20260507025542 51 315 3.5 5.2 0.00 0.56 0.01 91 1010.1
20260507024539 51 315 0.9 1.7 0.00 0.56 0.01 92 1010.3
20260507023532 51 315 0.0 1.7 0.00 0.56 0.01 92 1010.2
20260507022530 51 292 0.9 1.7 0.00 0.57 0.01 91 1010.1
20260507021525 51 315 0.9 1.7 0.00 0.57 0.01 90 1010.2
20260507020525 51 315 1.7 2.6 0.00 0.57 0.01 90 1010.4
20260507015519 51 292 0.0 0.9 0.00 0.57 0.01 90 1010.0
20260507014535 52 0.0 0.0 0.01 0.57 0.01 89 1010.1
20260507013512 52 0.0 0.9 0.01 0.57 0.01 88 1010.1
20260507012508 52 292 2.6 3.5 0.01 0.57 0.01 88 1010.0
20260507011507 52 315 2.6 2.6 0.01 0.57 0.01 90 1009.9
20260507011005 52 0.0 0.0 0.01 0.57 0.01 90 1010.1
20260507010018 52 292 1.7 2.6 0.01 0.57 0.01 91 1009.8
20260507004952 53 315 0.0 0.9 0.00 0.56 0.00 90 1009.7
20260507003949 53 0.0 0.0 0.00 0.56 0.00 89 1010.2
20260507002945 53 315 0.9 1.7 0.00 0.56 0.00 89 1009.7
20260507001943 52 292 0.9 2.6 0.00 0.56 0.00 90 1009.8
20260507000939 53 292 0.9 2.6 0.00 0.56 0.00 90 1009.9
20260506235934 53 315 1.7 2.6 0.00 0.56 0.00 91 1009.8
20260506234931 53 292 1.7 2.6 0.00 0.56 0.00 91 1010.0
20260506233928 53 292 2.6 3.5 0.00 0.56 0.00 90 1009.9
20260506232924 53 292 1.7 2.6 0.00 0.56 0.00 91 1009.8
20260506231920 53 292 0.0 0.9 0.00 0.56 0.00 90 1009.7
20260506230937 53 315 1.7 2.6 0.00 0.56 0.00 90 1009.8
20260506225933 53 315 2.6 3.5 0.00 0.56 0.00 90 1009.4
20260506224909 53 292 0.9 1.7 0.00 0.56 0.00 90 1009.5
20260506223906 53 315 0.9 2.6 0.00 0.56 0.00 90 1009.6
20260506222118 53 292 0.9 1.7 0.00 0.56 0.00 92 1009.6
20260506221116 53 292 0.0 1.7 0.00 0.56 0.00 91 1009.5
20260506220211 53 292 0.9 2.6 0.00 0.56 0.00 91 1009.4
20260506215128 53 292 0.0 1.7 0.00 0.56 0.56 91 1009.3
20260506214104 53 292 0.0 0.9 0.00 0.56 0.56 91 1009.5
20260506213101 53 0.0 0.9 0.00 0.56 0.56 91 1009.5
20260506212059 53 292 0.0 0.9 0.00 0.56 0.56 91 1009.2
20260506211055 53 292 0.0 0.9 0.00 0.56 0.56 91 1009.3
20260506210051 53 0.0 0.0 0.00 0.56 0.56 91 1009.3
20260506205049 53 292 0.0 0.9 0.00 0.56 0.56 91 1009.1
20260506204045 53 0.0 0.0 0.00 0.56 0.56 92 1009.1
20260506203041 53 315 0.9 2.6 0.00 0.56 0.56 92 1009.2
20260506202037 53 315 0.9 1.7 0.00 0.56 0.56 92 1009.1
20260506201053 53 315 2.6 5.2 0.00 0.56 0.56 92 1009.1
20260506200032 53 315 1.7 2.6 0.00 0.56 0.56 92 1008.9
20260506195025 53 315 0.9 1.7 0.00 0.56 0.56 92 1008.9
20260506194019 53 0.0 0.0 0.00 0.57 0.56 92 1008.7
20260506193017 53 0.0 0.0 0.00 0.57 0.56 92 1008.5
20260506192016 53 315 0.9 1.7 0.11 0.57 0.56 91 1008.2
20260506191010 54 315 0.0 0.9 0.11 0.57 0.56 90 1007.8
20260506190007 53 315 2.6 7.8 0.11 0.57 0.56 90 1007.2
20260506185003 53 292 4.3 8.7 0.11 0.57 0.56 92 1007.3
20260506184020 53 292 7.0 10.4 0.11 0.57 0.56 93 1007.5
20260506182956 54 315 2.6 2.6 0.09 0.55 0.54 90 1008.0
20260506182012 56 315 0.9 2.6 0.00 0.46 0.44 88 1008.6
20260506180949 56 0.0 0.0 0.00 0.46 0.44 86 1007.7
20260506175947 56 0.0 0.0 0.00 0.46 0.44 86 1007.4
20260506174941 56 315 0.9 1.7 0.00 0.46 0.44 85 1006.9
20260506173938 56 315 0.9 1.7 0.00 0.46 0.44 84 1007.0
20260506172935 56 315 0.9 1.7 0.00 0.46 0.44 85 1006.8
20260506171931 56 315 1.7 3.5 0.00 0.46 0.44 85 1006.7
20260506170927 56 315 0.9 1.7 0.00 0.46 0.44 86 1006.6
20260506165923 55 315 3.5 7.0 0.00 0.46 0.44 86 1006.5
20260506164917 56 270 3.5 9.6 0.00 0.46 0.44 85 1006.4
20260506163934 56 315 1.7 2.6 0.00 0.46 0.44 85 1006.7
20260506162911 56 0.0 0.9 0.00 0.46 0.44 87 1006.3
20260506161930 57 0.0 0.0 0.00 0.46 0.44 87 1005.9
20260506160928 56 315 3.5 7.0 0.00 0.47 0.44 87 1005.2
20260506155902 56 45 3.5 7.0 0.01 0.47 0.44 88 1005.2
20260506154859 57 315 1.7 3.5 0.04 0.47 0.44 89 1005.4
20260506153855 56 337 5.2 7.0 0.09 0.48 0.44 88 1005.9
20260506152851 57 315 2.6 3.5 0.09 0.48 0.44 88 1005.7
20260506151908 55 315 0.9 1.7 0.09 0.48 0.44 93 1005.3
20260506150845 53 315 2.6 3.5 0.09 0.48 0.44 92 1005.6
20260506145841 53 315 4.3 7.8 0.08 0.47 0.43 90 1006.0
20260506144838 55 292 3.5 5.2 0.04 0.43 0.40 90 1006.0
20260506143835 57 315 0.9 1.7 0.00 0.38 0.35 82 1006.4
20260506142830 58 315 5.2 7.8 0.00 0.38 0.35 83 1005.5
20260506141828 61 0.0 0.9 0.00 0.38 0.35 79 1005.8
20260506140825 63 45 1.7 5.2 0.00 0.40 0.35 83 1005.6
20260506135900 63 292 2.6 7.0 0.00 0.40 0.35 83 1005.3
20260506134816 63 90 5.2 9.6 0.00 0.40 0.35 83 1005.6
20260506133835 63 112 3.5 8.7 0.00 0.40 0.35 83 1005.5
20260506132812 62 135 7.8 15.6 0.00 0.40 0.35 84 1005.5
20260506131807 62 337 6.1 9.6 0.00 0.40 0.35 85 1005.5
20260506130803 62 45 6.1 14.8 0.00 0.40 0.35 83 1006.0
20260506125820 62 22 5.2 13.0 0.00 0.40 0.35 83 1006.2
20260506124756 62 337 6.1 13.0 0.00 0.40 0.35 84 1006.3
20260506123752 61 225 3.5 8.7 0.00 0.40 0.35 85 1006.3
20260506122748 61 90 3.5 10.4 0.00 0.40 0.35 85 1006.4
20260506121745 62 135 3.5 7.8 0.00 0.40 0.35 84 1006.4
20260506120742 62 67 3.5 7.0 0.00 0.40 0.35 84 1006.4
20260506115739 62 202 5.2 11.3 0.00 0.40 0.35 85 1006.3
20260506114735 60 112 5.2 11.3 0.00 0.40 0.35 87 1006.2
20260506113732 60 112 6.1 13.0 0.00 0.41 0.35 87 1006.7
20260506112729 60 135 7.0 13.0 0.00 0.41 0.35 86 1006.5
20260506111725 60 315 7.0 11.3 0.00 0.42 0.35 87 1006.8
20260506110722 60 112 6.1 9.6 0.00 0.43 0.35 86 1006.7
20260506105718 60 112 5.2 8.7 0.00 0.43 0.35 87 1006.6
20260506104715 60 67 3.5 8.7 0.00 0.44 0.35 89 1007.1